STARLINK-1522, 46027

Orbit data source: Space-Track

STARLINK-1522, 46027 is a payload satellite owned by SpaceX/Seattle (US) in LEO that was launched on Fri, 07 Aug 2020 UTC via an FALCON 9 launch vehicle from the Air Force Eastern Test Range (AFETR). Payload-class satellites include a variety of spacecraft equipped with specific instruments for various scientific and technological missions. These include communications satellites like Starlink; space stations such as the ISS; scientific satellites like the Hubble; Earth observation satellites from companies like Planet Labs, Umbra, and HawkEye 360; GPS; miniature CubeSats for education and research; and military/defense satellites.

Loading next visibility...
Identifier
46027, 2020-055A
Orbit
LEO
Country
Flag of USUS
Related business
Manufacturer
SpaceX/Seattle
Mission
Operational Commercial Communications
Bus & Motor
STARLINK, Unknown motor
Mass
260 kg wet, ~248 kg dry
Launch date (UTC)
2020-08-07 (6 years ago)
Launch vehicle
FALCON 9
Launch site
Air Force Eastern Test Range (AFETR)
Object type
Payload
Rocket body
Debris
Shape & HBR
Box + 1 Pan, 10.1 m
Radar Cross Section
13.562 m², Large (>1 m²)

Expand to show TLE details & history
Last TLE update: 5 hours ago

TLE from 5 hours ago
0 STARLINK-1522
1 46027U 20055A   26036.84921752  .00003151  00000-0  23028-3 0  9994
2 46027  53.0532 269.5553 0001404  88.5818 271.5331 15.06407524304082
Epoch: 2026-02-05T20:22Z
TLE epoch observation values (Epoch: 2026-02-05T20:22:52.393Z)
Latitude
-0.0001°
Longitude
-172.15862°
Altitude
548.042 km
Speed
7.589 km/s
True Right ascension
17h 58m 13s
True Declination
0° 00' 00"
Sunlit
Object was in daylight at epoch
Visualization orbit readout
Latitude
Unknown
Longitude
Unknown
Altitude
Unknown
Speed
Unknown
Apparent Right ascension
Unknown
Apparent Declination
Unknown
Sunlit
N/A
Visualization observer readout
Local Sidereal Time
03:52:37
Azimuth
Unknown
Elevation
Unknown
Doppler factor
Unknown
Orbital elements
Apogee altitude
548.432 km
Perigee altitude
546.487 km
Semi-major axis
6,925.596 km
Eccentricity
0.00014
Inclination
53.0532°
RAAN
269.5553°
Arg. of periapsis
88.5818°
True anomaly
271.51702°
Mean anomaly
271.5331°
Eccentric anomaly
271.52506°
Mean motion
3.7658 °/min
Orbital period
95.6 mins
BSTAR
0.00023028
Loading maneuver chart data...
Computing Atmospheric mass density...
Loading historical data...
Loading historical data...
Loading historical data...
Loading historical data...
Loading historical data...
Loading historical data...
Loading historical data...

Documentation

Showing up to 5 results
|